Content
SEND FEEDBACK

Daily
Averages
Monthly
Summary
United States of America

SAGINAW - DOWNTOWN, MICHIGAN


Home > North America > United States > Michigan
Elevation: 670 feet     Latitude: 43 25N     Longitude: 083 58W

WEATHER
 
SELECT A DAY
Number of Records: 336,181;   Date Range: 12/1/00 - 8/30/14
 
SHARE

PRINT THIS DATA

[ ← Previous Day ]
WEATHER ALMANAC - JANUARY 31, 2013
[ Next Day → ]
[ °C ]   °F
Weather ElementAverageHighLow
Temperature23.1 °F30.2 °F (12:32 am)19.4 °F (7:13 pm)
Dewpoint13.6 °F23 °F (12:32 am)10.4 °F (8:14 am)
Humidity67.3 %80 % (1:32 am)59 % (8:14 am)
Barometer29.57 in29.84 in (11:35 pm)29.22 in (12:32 am)
Wind Speed20.4 mph29.9 mph (3:10 am)
Wind Gust40.3 mph (1:55 am)
Weather ElementAverage
Visibility9.6 mi
Wind DirectionW (273.3 °)

Weather ElementTotal
Precipitation---
Heating Degree Days40.2 (Base 65)
Averaged from 64 records on January 31, 2013
WEATHER CONDITIONS BREAKOUT
WIND DIRECTION BREAKOUT
WEATHER BY HOUR - JANUARY 31, 2013
[ °C ]   °F
Local TimeTemperatureDewpointHumidityBarometerVisibilityWind DirectionWind SpeedGust SpeedPrecipitationEventsConditions
12:32 AM30.2 °F23.0 °F75 %29.22 in10.0 miWest (270°)21.9 mph31.1 mphScattered Clouds
1:12 AM30.2 °F23.0 °F75 %29.25 in10.0 miWest (270°)27.6 mph36.8 mphOvercast
1:32 AM28.4 °F23.0 °F80 %29.26 in10.0 miWest (260°)24.2 mph34.5 mphOvercast
1:55 AM28.4 °F21.2 °F74 %29.28 in10.0 miWest (270°)24.2 mph40.3 mphOvercast
2:15 AM28.4 °F19.4 °F69 %29.28 in10.0 miWest (280°)21.9 mph33.4 mphOvercast
2:35 AM28.4 °F21.2 °F74 %29.31 in10.0 miWest (270°)21.9 mph31.1 mphOvercast
2:55 AM26.6 °F19.4 °F74 %29.32 in10.0 miWest (270°)26.5 mph33.4 mphOvercast
3:10 AM26.6 °F17.6 °F69 %29.32 in10.0 miWest (260°)29.9 mph35.7 mphOvercast
3:31 AM26.6 °F17.6 °F69 %29.34 in10.0 miWest (270°)24.2 mph36.8 mphOvercast
3:51 AM26.6 °F17.6 °F69 %29.35 in10.0 miWest (270°)25.3 mph36.8 mphOvercast
4:13 AM24.8 °F17.6 °F74 %29.36 in10.0 miWest (280°)20.7 mph32.2 mphOvercast
4:33 AM24.8 °F17.6 °F74 %29.38 in7.0 miWest (260°)24.2 mph32.2 mphSnowLight Snow
4:53 AM24.8 °F17.6 °F74 %29.38 in7.0 miWest (270°)24.2 mph33.4 mphSnowLight Snow
5:13 AM24.8 °F15.8 °F69 %29.40 in10.0 miWest (270°)28.8 mph35.7 mphSnowLight Snow
5:33 AM23.0 °F14.0 °F68 %29.42 in10.0 miWest (280°)21.9 mph35.7 mphSnowLight Snow
5:53 AM23.0 °F14.0 °F68 %29.43 in10.0 miWest (280°)23.0 mph38.0 mphOvercast
6:14 AM23.0 °F14.0 °F68 %29.43 in10.0 miWest (270°)21.9 mph38.0 mphOvercast
6:34 AM23.0 °F14.0 °F68 %29.45 in10.0 miWest (270°)27.6 mph36.8 mphOvercast
6:54 AM23.0 °F15.8 °F74 %29.46 in10.0 miWest (270°)25.3 mph34.5 mphSnowLight Snow
7:14 AM23.0 °F14.0 °F68 %29.47 in10.0 miWest (260°)26.5 mph33.4 mphSnowLight Snow
7:34 AM23.0 °F12.2 °F63 %29.48 in10.0 miWest (260°)26.5 mph33.4 mphOvercast
7:54 AM23.0 °F12.2 °F63 %29.50 in10.0 miWest (270°)27.6 mph33.4 mphOvercast
8:14 AM23.0 °F10.4 °F59 %29.51 in10.0 miWest (280°)21.9 mph32.2 mphOvercast
8:34 AM23.0 °F10.4 °F59 %29.52 in10.0 miWest (260°)21.9 mph32.2 mphOvercast
8:54 AM23.0 °F10.4 °F59 %29.53 in10.0 miWest (280°)25.3 mph31.1 mphOvercast
9:14 AM23.0 °F12.2 °F63 %29.54 in10.0 miWest (270°)23.0 mph31.1 mphOvercast
9:34 AM23.0 °F12.2 °F63 %29.55 in10.0 miWest (280°)24.2 mph31.1 mphOvercast
9:54 AM23.0 °F12.2 °F63 %29.56 in10.0 miWest (270°)20.7 mph31.1 mphOvercast
10:35 AM23.0 °F10.4 °F59 %29.59 in10.0 miWest (280°)19.6 mph29.9 mphOvercast
10:55 AM23.0 °F10.4 °F59 %29.60 in10.0 miWest (270°)21.9 mph27.6 mphOvercast
11:15 AM23.0 °F12.2 °F63 %29.60 in10.0 miWest (270°)24.2 mph31.1 mphOvercast
11:35 AM23.0 °F12.2 °F63 %29.61 in10.0 miWest (280°)19.6 mph26.5 mphOvercast
12:00 PM23.0 °F12.2 °F63 %29.61 in10.0 miWest (270°)20.7 mph31.1 mphOvercast
12:10 PM23.0 °F12.2 °F63 %29.61 in10.0 miWest (270°)17.3 mph29.9 mphOvercast
12:31 PM23.0 °F12.2 °F63 %29.62 in10.0 miWest (260°)21.9 mph28.8 mphOvercast
1:11 PM24.8 °F14.0 °F64 %29.62 in10.0 miWest (260°)15.0 mph28.8 mphOvercast
1:31 PM23.0 °F10.4 °F59 %29.62 in10.0 miWest (270°)23.0 mph29.9 mphOvercast
1:51 PM23.0 °F10.4 °F59 %29.63 in10.0 miWest (270°)24.2 mph32.2 mphOvercast
2:11 PM23.0 °F10.4 °F59 %29.64 in10.0 miWest (270°)15.0 mph25.3 mphOvercast
2:31 PM23.0 °F12.2 °F63 %29.64 in10.0 miWNW (290°)17.3 mph24.2 mphOvercast
2:52 PM24.8 °F12.2 °F59 %29.66 in10.0 miWNW (290°)18.4 mph26.5 mphOvercast
3:12 PM23.0 °F10.4 °F59 %29.66 in10.0 miWest (260°)15.0 mph26.5 mphOvercast
3:32 PM23.0 °F14.0 °F68 %29.68 in4.0 miWest (280°)16.1 mph25.3 mphSnowLight Snow
3:52 PM21.2 °F14.0 °F74 %29.68 in2.5 miWest (270°)16.1 mph26.5 mphSnowLight Snow
4:12 PM23.0 °F12.2 °F63 %29.69 in7.0 miWest (270°)16.1 mph26.5 mphOvercast
4:32 PM23.0 °F12.2 °F63 %29.69 in10.0 miWNW (290°)19.6 mphOvercast
4:52 PM21.2 °F10.4 °F63 %29.70 in10.0 miWest (270°)20.7 mph25.3 mphOvercast
5:12 PM21.2 °F10.4 °F63 %29.71 in7.0 miWest (270°)19.6 mph25.3 mphOvercast
5:33 PM21.2 °F12.2 °F68 %29.72 in10.0 miWest (280°)16.1 mph24.2 mphOvercast
5:53 PM21.2 °F10.4 °F63 %29.73 in10.0 miWest (270°)16.1 mphOvercast
6:13 PM21.2 °F12.2 °F68 %29.74 in10.0 miWest (270°)15.0 mph19.6 mphOvercast
6:33 PM21.2 °F10.4 °F63 %29.75 in10.0 miWNW (300°)16.1 mph21.9 mphOvercast
6:53 PM21.2 °F10.4 °F63 %29.76 in7.0 miWNW (290°)13.8 mphSnowLight Snow
7:13 PM19.4 °F12.2 °F74 %29.76 in10.0 miWest (280°)16.1 mph19.6 mphMostly Cloudy
7:33 PM19.4 °F12.2 °F74 %29.77 in10.0 miWest (280°)15.0 mph23.0 mphMostly Cloudy
7:54 PM19.4 °F10.4 °F68 %29.78 in10.0 miWest (280°)16.1 mph21.9 mphScattered Clouds
8:14 PM19.4 °F12.2 °F74 %29.79 in10.0 miWest (280°)17.3 mphScattered Clouds
8:34 PM19.4 °F10.4 °F68 %29.79 in10.0 miWest (280°)16.1 mph25.3 mphOvercast
9:14 PM19.4 °F10.4 °F68 %29.80 in10.0 miWest (280°)11.5 mph17.3 mphOvercast
9:34 PM19.4 °F12.2 °F74 %29.81 in10.0 miWest (270°)15.0 mphOvercast
10:14 PM19.4 °F12.2 °F74 %29.82 in10.0 miWest (270°)17.3 mphOvercast
10:34 PM19.4 °F12.2 °F74 %29.82 in10.0 miWest (270°)15.0 mph20.7 mphSnowLight Snow
11:15 PM19.4 °F14.0 °F80 %29.83 in10.0 miWest (280°)12.7 mphOvercast
11:35 PM19.4 °F14.0 °F80 %29.84 in10.0 miWest (280°)13.8 mph19.6 mphSnowLight Snow
Hourly data recorded from KHYX, located miles away from Saginaw - Downtown, Michigan







STORIES FROM OUR PARTNERS